www.pogodaiklimat.ru

Погода и климат >> Архив погоды >> Россия >> Адыгея >> Дондуковская


ПОГОДА в Дондуковской

  • Прогноз погоды в Дондуковской
  • Монитор погоды в Дондуковской

АРХИВ ПОГОДЫ в Дондуковской

Время (UTC), дата Ветер
(напр.,м/с)
 
Видим.   Явления Облачность Т
(С)
Тd
(С)
f
(%)
Тe
(С)
Тes
(С)
Комфортность P
(гПа)
Po
(гПа)
Тmin
(С)
Tmax
(С)
R
(мм)
R24
(мм)
S
(см)
12 8.09 СВ 5-11
{15}
10 км 3/0
[Ac trans]
+26.3 +6.0 27 +26 +29 жарко 1018.2 1000.1
15 8.09 СВ 5-11
{13}
10 км 3/0
[Ac trans]
+24.3 +4.6 28 +24 +24 комфорт 1018.9 1000.7 +26.8
18 8.09 СВ 1
{12}
10 км ясно +18.1 +5.9 45 +19 +19 1020.5 1001.8
21 8.09 СВ 1 10 км ясно +16.3 +7.7 57 +17 +17 1020.4 1001.6
00 9.09 СВ 1 10 км ясно +16.3 +7.7 57 +17 +17 1020.4 1001.1
03 9.09 СВ 2 10 км ясно +16.3 +7.7 57 +16 +16 1020.4 1001.1 +13.9
06 9.09 СВ 6-12
{12}
10 км ясно +21.6 +5.1 34 +22 +24 комфорт 1019.2 1000.7
09 9.09 В 6-15
{16}
10 км ясно +24.6 +4.5 27 +24 +29 комфорт 1018.3 1000.1
12 9.09 СВ 6-15
{16}
10 км ясно +26.0 +3.4 23 +25 +28 комфорт 1017.2 999.1
15 9.09 СВ 5-11
{15}
10 км ясно +24.0 +3.4 26 +23 +23 комфорт 1017.1 998.8 +26.2
18 9.09 СВ 3
{12}
10 км ясно +20.7 +4.9 35 +22 +22 комфорт 1017.8 999.4
21 9.09 СВ 4 10 км ясно +18.5 +5.9 44 +19 +19 1017.7 999.2
00 10.09 СВ 2 10 км ясно +15.9 +7.7 58 +16 +16 1017.9 999.2
03 10.09 СВ 2 10 км ясно +14.4 +7.5 63 +14 +14 1018.5 999.7 +14.4
06 10.09 СВ 5-12
{12}
10 км ясно +20.3 +8.6 47 +21 +24 комфорт 1018.9 1000.4
09 10.09 СВ 5-14
{17}
10 км ясно +25.3 +6.5 30 +25 +32 комфорт 1018.3 1000.2
12 10.09 В 7-15
{15}
10 км 3/3
[Cu hum]
+26.7 +5.9 26 +26 +27 жарко 1017.4 999.3
15 10.09 В 4
{15}
10 км 3/3 1000 м
[Cu hum]
+24.9 +5.4 28 +24 +25 комфорт 1017.8 999.6 +27.6
18 10.09 СВ 2 10 км ясно +21.1 +6.2 38 +22 +22 комфорт 1019.0 1000.6
21 10.09 СВ 4
{11}
10 км ясно +19.9 +6.0 40 +21 +21 комфорт 1019.3 1000.8
00 11.09 СВ 3 10 км ясно +17.5 +10.8 65 +18 +18 1019.9 1001.3
03 11.09 СВ 3 10 км ясно +16.3 +11.9 75 +16 +16 1020.9 1002.2 +16.1
06 11.09 СВ 5 10 км 3/0
[Ac trans]
+21.0 +12.2 57 +23 +26 комфорт 1021.5 1003.1 +16.1
09 11.09 В 6 10 км 4/0
[Ac As]
+25.9 +8.9 34 +26 +30 жарко 1020.7 1002.9
12 11.09 В 6-13
{14}
10 км 4/0
[Ac As]
+28.1 +7.2 27 +27 +30 жарко 1020.6 1002.6
15 11.09 В 5
{14}
10 км ясно +25.4 +6.8 30 +25 +25 комфорт 1021.4 1003.2 +28.7
18 11.09 СВ 1 10 км ясно +18.7 +7.8 49 +20 +20 1022.5 1003.9
21 11.09 СВ 1 10 км ясно +15.8 +5.8 51 +17 +17 1022.4 1003.6
00 12.09 СВ 1 10 км ясно +13.5 +6.4 62 +14 +14 1022.4 1003.4
03 12.09 СВ 1 10 км ясно +11.4 +7.3 76 +11 +11 1023.3 1004.2 +11.2
06 12.09 СВ 3 10 км ясно +21.2 +8.2 43 +22 +27 комфорт 1022.9 1004.4
09 12.09 СВ 5-11
{14}
10 км ясно +26.4 +2.8 22 +25 +31 комфорт 1021.4 1003.2
12 12.09 В 5-10
{13}
10 км ясно +27.7 +1.8 19 +26 +30 жарко 1020.7 1002.6
15 12.09 СВ 4-10
{12}
10 км ясно +25.1 +2.7 23 +24 +24 комфорт 1020.5 1002.3 +28.0
18 12.09 СВ 1
{10}
10 км ясно +19.0 +3.2 35 +20 +20 1021.6 1003.0
21 12.09 СВ 2 10 км ясно +16.6 +3.8 42 +17 +17 1021.0 1002.2
00 13.09 СВ 1 10 км ясно +13.9 +6.0 59 +14 +14 1020.9 1002.0
03 13.09 СВ 2 10 км ясно +12.7 +6.5 66 +12 +12 1021.6 1002.6 +11.8
06 13.09 СВ 3 10 км ясно +21.0 +7.5 42 +23 +27 комфорт 1022.0 1003.5
09 13.09 СВ 4-10
{12}
10 км ясно +26.5 +4.2 24 +25 +33 комфорт 1020.3 1002.2
12 13.09 В 5-10
{12}
10 км ясно +27.5 +1.3 18 +25 +29 комфорт 1019.0 1001.0
15 13.09 СВ 3
{10}
10 км ясно +25.0 +2.5 23 +24 +24 комфорт 1019.0 1000.8 +28.1
18 13.09 СВ 1 10 км ясно +16.8 +4.3 43 +18 +18 1020.2 1001.5
21 13.09 СВ 2 10 км ясно +15.9 +4.9 48 +16 +16 1019.7 1001.0
00 14.09 СВ 1 н/о н/о +11.4 +5.1 65 +11 +11 1019.7 1000.7
03 14.09 В 1 10 км ясно +8.3 +4.4 76 +8 +8 1020.2 1000.9 +8.3
06 14.09 В 2 10 км ясно +17.6 +7.1 50 +18 +23 1019.7 1001.0 +8.3
09 14.09 ЮЗ 1 10 км ясно +24.2 +6.0 31 +24 +38 комфорт 1018.1 999.9
12 14.09 З 1 10 км ясно +28.2 +4.4 22 +27 +35 жарко 1016.5 998.6
15 14.09 З 1 10 км ясно +25.6 +4.3 25 +25 +25 комфорт 1016.0 997.9 +28.5
18 14.09 Ю 2 10 км ясно +16.9 +4.5 44 +17 +17 1017.3 998.6
21 14.09 Ю 1 10 км ясно +14.6 +7.4 62 +15 +15 1017.6 998.8
00 15.09 Ю 2 10 км ясно +13.7 +8.5 71 +13 +13 1018.1 999.2
03 15.09 Ю 2 10 км 3/0
[Ci]
+12.6 +8.0 74 +12 +12 1018.9 999.9 +12.5
06 15.09 ЮЗ 3 10 км 3/0
[Ci]
+19.4 +8.2 48 +20 +24 1019.3 1000.7

 

Местоположение метеостанции Дондуковская (Адыгея, Россия): широта 44.86 долгота 40.35 высота над уровнем моря 158 м.

В архиве по умолчанию представлена погода в Дондуковской за последнюю неделю. Архивные данные за месяц целиком и за предыдущие месяцы, начиная с января 2011 года, Вы можете получить, выбрав интересующий диапазон дат из раскрывающегося списка и нажав кнопку "Ввод!".


*Определитесь, кто Вы:
робот инопланетянин человек

Внимание! Время в таблицах - всемирное. Для получения местного времени необходимо прибавить поправку, которая равна 3 ч.

Смотрите также архив погоды в соседних городах и на ближайших метеорологических станциях:

Погода в Майкопе (Адыгея, Россия) (34 км)
Погода в Белореченске (Краснодарский край, Россия) (38 км)
Погода в Лабинске (Краснодарский край, Россия) (38 км)
Погода в Даховской (Адыгея, Россия) (38 км)
Погода в Шунтуке (Адыгея, Россия) (47 км)
Погода в Армавире (Краснодарский край, Россия) (62 км)
Погода в Усть-Лабинске (Краснодарский край, Россия) (64 км)
Погода в Кропоткине (Краснодарский край, Россия) (66 км)
Погода в Псебае (Краснодарский край, Россия) (88 км)
Погода в Кореновске (Краснодарский край, Россия) (96 км)

Пояснения к столбцам:

Ветер - указаны скорость ветра в м/с - средняя за 10 мин, порывы в срок и между сроками (в фигурных скобках) и направление, откуда дует ветер: С - северный, СВ - северо-восточный, В - восточный, ЮВ - юго-восточный, Ю - южный, ЮЗ - юго-западный, З - западный, СЗ - северо-западный.
Видимость - горизонтальная дальность видимости в метрах или километрах. При видимости от 1 до 10 км при отсутствии осадков обычно наблюдается дымка, при ухудшении видимости до 1 км и менее - туман. В сухую погоду видимость может ухудшаться дымом, пылью или мглою.
Явления - указаны атмосферные явления, наблюдавшиеся в срок или в последний час перед сроком; фигурными скобками обозначены явления, наблюдавшиеся между сроками (за 1-3 часа до срока); квадратными скобками обозначены град или гололедные отложения с указанием их диаметра в мм.
Облачность - указаны через наклонную черту общая и нижняя облачность в баллах и высота нижней границы облаков в метрах; квадратными скобками обозначены формы облаков: Ci - перистые, Cs - перисто-слоистые, Cc - перисто-кучевые, Ac - высококучевые, As - высокослоистые, Sc - слоисто-кучевые, Ns - слоисто-дождевые, Cu - кучевые, Cb - кучево-дождевые. Подробнее классификацию облаков см. в Атласе облаков (PDF).
T - Температура воздуха - температура, измеренная на высоте 2 м над землей.
Td - Температура точки росы - температура, при понижении до которой содержащийся в воздухе водяной пар достигнет насыщения.
f - Относительная влажность воздуха - влажноcть воздуха, измеренная на высоте 2 м над землей.
Te - Эффективная температура - температура, которую ощущает одетый по сезону человек в тени. Характеристика душности погоды. При расчете учитывается влияние влажности воздуха и скорости ветра на теплоощущения человека.
Tes - Эффективная температура на солнце - температура, которую ощущает человек, с поправкой на солнечный нагрев. Характеристика знойности погоды. Зависит от высоты солнца над горизонтом, облачности и скорости ветра. Ночью, в пасмурную погоду, а также при ветре 12 м/с и более поправка равна нулю.
P - Атмосферное давление - приведенное к уровню моря атмосферное давление.
Po - Атмосферное давление - измеренное на уровне метеостанции атмосферное давление.
Tmin - Минимальная температура - минимум температуры воздуха на высоте 2 м над землей.
Tmax - Максимальная температура - максимум температуры воздуха на высоте 2 м над землей.
R - Количество осадков - Количество выпавших осадков за период времени, мм. При наведении курсора мыши на число - период времени, за который выпало указанное количество осадков.
R24 - Количество осадков - Количество выпавших осадков за 24 часа, мм.
S - Снежный покров - Высота снежного покрова, см. При наведении курсора мыши на число - состояние снежного покрова и степень покрытия местности в баллах.